Regional Weather Roundup
Issued by NWS Green Bay, WI

Home | Current Version | Previous Version | Graphics & Text | Print | Product List | Glossary Off
Versions: 1 2 3 4 5 6 7 8 9 10 11 12 13 14 15 16 17 18 19 20 21 22 23 24 25 26 27 28 29 30 31 32 33 34 35 36 37 38 39 40 41 42 43 44 45 46 47 48 49 50

000
ASUS43 KGRB 311400
RWRGRB

NORTH-CENTRAL AND NORTHEAST WISCONSIN REGIONAL WEATHER ROUNDUP
NATIONAL WEATHER SERVICE GREEN BAY WI
900 AM CDT MON AUG 31 2015

WIZ005-009-010>012-018-019-311500-
NORTH CENTRAL WISCONSIN

CITY           SKY/WX    TMP DP  RH WIND       PRES   REMARKS
IRONWOOD       SUNNY     68  63  83 S10       29.92S
MANITOWISH WTR NOT AVBL
ARBOR VITAE    NOT AVBL
EAGLE RIVER    NOT AVBL
LAND O LAKES   NOT AVBL
RHINELANDER    CLOUDY    65  63  93 SW8       30.03R FOG
PHILLIPS       NOT AVBL
ANTIGO         NOT AVBL
TOMAHAWK       NOT AVBL
MERRILL        NOT AVBL
$$

WIZ013-073-311500-
NORTHEAST WISCONSIN

CITY           SKY/WX    TMP DP  RH WIND       PRES   REMARKS
IRON MOUNTAIN  MOSUNNY   65  61  87 CALM      29.99S
MARINETTE      CLOUDY    64  61  88 W5        30.01R
$$

WIZ017-030-035>037-045-311500-
CENTRAL WISCONSIN

CITY           SKY/WX    TMP DP  RH WIND       PRES   REMARKS
MEDFORD        NOT AVBL
WAUSAU         CLOUDY    63  62  97 CALM      30.03R FOG
MOSINEE        FOG       63  63 100 S5        30.05R VSB 1/2
MARSHFIELD     FOG       64  61  90 SW5       30.04R VSB 1/4
WISC RAPIDS    CLOUDY    65  63  93 SW3       30.05S FOG
STEVENS POINT  NOT AVBL
WAUPACA        NOT AVBL
SHAWANO        NOT AVBL
CLINTONVILLE   CLOUDY    63  63 100 SW5       30.03S FOG
WAUTOMA        NOT AVBL
$$

WIZ038-039-048-051-311500-
FOX VALLEY

CITY           SKY/WX    TMP DP  RH WIND       PRES   REMARKS
NWS GREEN BAY  MOSUNNY   67  65  93 SW7       30.03S FOG
APPLETON       CLOUDY    64  64 100 SW7       30.03S FOG
OSHKOSH        CLOUDY    66  63  90 SW7       30.05R
FOND DU LAC    CLOUDY    66  64  93 SW7       30.06R
$$

WIZ022-050-052-311500-
EAST CENTRAL WISCONSIN

CITY           SKY/WX    TMP DP  RH WIND       PRES   REMARKS
EPHRAIM        FOG       62  62  99 W6        30.01R VSB 1/4
STURGEON BAY   CLOUDY    66  63  88 W10       30.04R
MANITOWOC      NOT AVBL
SHEBOYGAN      SUNNY     66  65  96 S6        30.05S
$$

LMZ563-521-522-541>543-311500-
LAKESHORE

STATION/POSITION TIME  TEMP    WIND        PRES    VSBY  WAVE
                       AIR SEA DIR/SP/G                  HT/PER
                 (UTC) (F)     (DEG/KT/KT) (MB)    (MI)  (FT/S)
SHEBOYGAN LKSHOR 1300   60     180/  7/  7 1017.7R
NORTHPORT PIER   1300   67     230/  6/  9 1015.6S
N MID LAKE BUOY  1250   64 65  210/ 10/ 12 1015.4R         2/ 4
S GREEN BAY BUOY 1300   63 63  240/ 10/ 12 1017.6R
CHAMBERS ISLAND  1300   62     200/  4/  7 1015.9R
$$


USA.gov is the U.S. government's official web portal to all federal, state and local government web resources and services.